When you browse on this site, cookies collect data to enhance your experience and personalize the content and advertising you see.
Visit our Privacy Policy to learn more. By continuing to use the site, you agree to this use of cookies and data.

Hourly Weather Smietki

Today, 5 July, Sunday

Time Temperature Precipitation Wind Pressure Humidity
00:00 +18°C° 0 mm 4 mps 747 mmHg 81%
01:00 +18°C° 0 mm 4 mps 747 mmHg 80%
02:00 +18°C° 0.2 mm 3 mps 747 mmHg 83%
03:00 +18°C° 0.2 mm 3 mps 747 mmHg 86%
04:00 +17°C° 0.2 mm 3 mps 747 mmHg 89%
05:00 +18°C° 0.3 mm 3 mps 747 mmHg 90%
06:00 +18°C° 0.3 mm 3 mps 747 mmHg 91%
07:00 +18°C° 0.3 mm 3 mps 747 mmHg 92%
08:00 +20°C° 0 mm 4 mps 747 mmHg 84%
09:00 +22°C° 0 mm 5 mps 747 mmHg 76%
10:00 +25°C° 0 mm 5 mps 747 mmHg 68%
11:00 +25°C° 0.3 mm 5 mps 747 mmHg 70%
12:00 +25°C° 0.3 mm 5 mps 746 mmHg 72%
13:00 +25°C° 0.3 mm 5 mps 746 mmHg 74%
14:00 +25°C° 0.1 mm 5 mps 746 mmHg 73%
15:00 +25°C° 0.1 mm 5 mps 745 mmHg 73%
16:00 +25°C° 0.1 mm 5 mps 745 mmHg 73%
17:00 +23°C° 0 mm 5 mps 745 mmHg 76%
18:00 +23°C° 0 mm 4 mps 745 mmHg 79%
19:00 +22°C° 0 mm 4 mps 745 mmHg 82%
20:00 +21°C° 0 mm 4 mps 745 mmHg 85%
21:00 +21°C° 0 mm 4 mps 745 mmHg 87%
22:00 +20°C° 0 mm 4 mps 745 mmHg 89%
23:00 +20°C° 0 mm 4 mps 745 mmHg 90%

Tomorrow, 6 July, Monday

Time Temperature Precipitation Wind Pressure Humidity
00:00 +19°C° 0 mm 3 mps 745 mmHg 91%
01:00 +19°C° 0 mm 3 mps 745 mmHg 93%
02:00 +19°C° 0 mm 3 mps 744 mmHg 92%
03:00 +19°C° 0 mm 3 mps 744 mmHg 91%
04:00 +19°C° 0 mm 3 mps 744 mmHg 90%
05:00 +19°C° 0 mm 3 mps 744 mmHg 89%
06:00 +19°C° 0 mm 3 mps 744 mmHg 89%
07:00 +19°C° 0 mm 3 mps 744 mmHg 89%
08:00 +19°C° 0.1 mm 3 mps 744 mmHg 88%
09:00 +19°C° 0.1 mm 3 mps 744 mmHg 88%
10:00 +19°C° 0.1 mm 3 mps 744 mmHg 88%
11:00 +19°C° 0.1 mm 4 mps 744 mmHg 84%
12:00 +20°C° 0.1 mm 4 mps 744 mmHg 80%
13:00 +20°C° 0.1 mm 5 mps 744 mmHg 76%
14:00 +21°C° 0 mm 5 mps 744 mmHg 71%
15:00 +22°C° 0 mm 5 mps 744 mmHg 66%
16:00 +22°C° 0 mm 5 mps 744 mmHg 62%
17:00 +21°C° 0.1 mm 4 mps 745 mmHg 69%
18:00 +19°C° 0.1 mm 3 mps 745 mmHg 76%
19:00 +19°C° 0.1 mm 1 mps 745 mmHg 83%
20:00 +16°C° 0 mm 1 mps 745 mmHg 83%
21:00 +15°C° 0 mm 2 mps 745 mmHg 84%
22:00 +14°C° 0 mm 2 mps 745 mmHg 85%
23:00 +13°C° 0 mm 2 mps 746 mmHg 86%

Day after tomorrow, 7 July, Tuesday

Time Temperature Precipitation Wind Pressure Humidity
00:00 +13°C° 0 mm 2 mps 746 mmHg 87%
01:00 +12°C° 0 mm 2 mps 747 mmHg 88%
02:00 +12°C° 0 mm 2 mps 747 mmHg 89%
03:00 +12°C° 0 mm 2 mps 747 mmHg 89%
04:00 +10°C° 0 mm 2 mps 747 mmHg 90%
05:00 +12°C° 0 mm 3 mps 747 mmHg 85%
06:00 +13°C° 0 mm 3 mps 747 mmHg 80%
07:00 +15°C° 0 mm 4 mps 748 mmHg 75%
08:00 +17°C° 0 mm 4 mps 748 mmHg 71%
09:00 +17°C° 0 mm 4 mps 748 mmHg 67%
10:00 +18°C° 0 mm 4 mps 749 mmHg 63%
11:00 +19°C° 0 mm 4 mps 749 mmHg 61%
12:00 +19°C° 0 mm 5 mps 749 mmHg 60%
13:00 +19°C° 0 mm 5 mps 749 mmHg 58%
14:00 +19°C° 0 mm 5 mps 749 mmHg 60%
15:00 +17°C° 0 mm 5 mps 749 mmHg 61%
16:00 +17°C° 0 mm 5 mps 749 mmHg 62%
17:00 +17°C° 0 mm 4 mps 749 mmHg 67%
18:00 +16°C° 0 mm 3 mps 749 mmHg 72%
19:00 +14°C° 0 mm 3 mps 750 mmHg 76%
20:00 +14°C° 0 mm 2 mps 750 mmHg 80%
21:00 +12°C° 0 mm 2 mps 750 mmHg 85%
22:00 +10°C° 0 mm 2 mps 750 mmHg 89%
23:00 +9°C° 0 mm 2 mps 750 mmHg 90%

8 July, Wednesday

Time Temperature Precipitation Wind Pressure Humidity
00:00 +9°C° 0 mm 2 mps 750 mmHg 91%
01:00 +9°C° 0 mm 2 mps 750 mmHg 92%
02:00 +8°C° 0 mm 2 mps 750 mmHg 92%
03:00 +8°C° 0 mm 2 mps 750 mmHg 92%
04:00 +8°C° 0 mm 2 mps 750 mmHg 92%
05:00 +10°C° 0 mm 2 mps 750 mmHg 85%
06:00 +13°C° 0 mm 2 mps 750 mmHg 78%
07:00 +15°C° 0 mm 2 mps 750 mmHg 71%
08:00 +16°C° 0 mm 3 mps 750 mmHg 67%
09:00 +17°C° 0 mm 3 mps 750 mmHg 63%
10:00 +18°C° 0 mm 3 mps 750 mmHg 59%
11:00 +18°C° 0 mm 3 mps 749 mmHg 58%
12:00 +19°C° 0 mm 4 mps 749 mmHg 58%
13:00 +19°C° 0 mm 4 mps 749 mmHg 57%
14:00 +19°C° 0.1 mm 4 mps 748 mmHg 61%
15:00 +19°C° 0.1 mm 4 mps 748 mmHg 64%
16:00 +18°C° 0.1 mm 4 mps 748 mmHg 68%
17:00 +17°C° 0.2 mm 3 mps 747 mmHg 76%
18:00 +16°C° 0.2 mm 3 mps 747 mmHg 84%
19:00 +13°C° 0.2 mm 3 mps 747 mmHg 92%
20:00 +13°C° 0 mm 3 mps 747 mmHg 93%
21:00 +12°C° 0 mm 3 mps 747 mmHg 93%
22:00 +12°C° 0 mm 3 mps 746 mmHg 94%
23:00 +11°C° 0 mm 3 mps 747 mmHg 95%

9 July, Thursday

Time Temperature Precipitation Wind Pressure Humidity
00:00 +11°C° 0 mm 3 mps 747 mmHg 96%
01:00 +11°C° 0 mm 3 mps 747 mmHg 96%
02:00 +11°C° 0 mm 3 mps 747 mmHg 96%
03:00 +10°C° 0 mm 3 mps 748 mmHg 96%
04:00 +10°C° 0 mm 3 mps 748 mmHg 96%
05:00 +11°C° 0 mm 4 mps 748 mmHg 91%
06:00 +13°C° 0 mm 4 mps 749 mmHg 86%
07:00 +14°C° 0 mm 4 mps 749 mmHg 81%
08:00 +15°C° 0 mm 5 mps 750 mmHg 74%
09:00 +17°C° 0 mm 5 mps 750 mmHg 67%
10:00 +19°C° 0 mm 5 mps 750 mmHg 60%
11:00 +19°C° 0 mm 5 mps 750 mmHg 59%
12:00 +20°C° 0 mm 6 mps 750 mmHg 58%
13:00 +20°C° 0 mm 6 mps 750 mmHg 57%
14:00 +20°C° 0.1 mm 5 mps 750 mmHg 58%
15:00 +19°C° 0.1 mm 5 mps 750 mmHg 60%
16:00 +19°C° 0.1 mm 5 mps 750 mmHg 62%
17:00 +18°C° 0 mm 4 mps 750 mmHg 68%
18:00 +17°C° 0 mm 3 mps 751 mmHg 74%
19:00 +14°C° 0 mm 3 mps 751 mmHg 81%
20:00 +14°C° 0 mm 2 mps 751 mmHg 85%
21:00 +12°C° 0 mm 2 mps 751 mmHg 89%
22:00 +11°C° 0 mm 1 mps 751 mmHg 93%
23:00 +11°C° 0 mm 1 mps 751 mmHg 93%

10 July, Friday

Time Temperature Precipitation Wind Pressure Humidity
00:00 +10°C° 0 mm 1 mps 751 mmHg 93%
01:00 +10°C° 0 mm 1 mps 751 mmHg 93%
02:00 +10°C° 0 mm 1 mps 751 mmHg 93%
03:00 +10°C° 0 mm 1 mps 751 mmHg 94%
04:00 +10°C° 0 mm 1 mps 751 mmHg 95%
05:00 +12°C° 0 mm 2 mps 751 mmHg 88%
06:00 +14°C° 0 mm 2 mps 751 mmHg 82%
07:00 +16°C° 0 mm 3 mps 751 mmHg 75%
08:00 +17°C° 0 mm 3 mps 750 mmHg 70%
09:00 +18°C° 0 mm 3 mps 750 mmHg 64%
10:00 +19°C° 0 mm 3 mps 750 mmHg 59%
11:00 +20°C° 0 mm 3 mps 750 mmHg 57%
12:00 +21°C° 0 mm 3 mps 749 mmHg 55%
13:00 +22°C° 0 mm 4 mps 749 mmHg 53%
14:00 +22°C° 0 mm 4 mps 748 mmHg 55%
15:00 +22°C° 0 mm 4 mps 748 mmHg 57%
16:00 +22°C° 0 mm 4 mps 748 mmHg 60%
17:00 +21°C° 0 mm 3 mps 748 mmHg 64%
18:00 +20°C° 0 mm 3 mps 747 mmHg 69%
19:00 +19°C° 0 mm 3 mps 747 mmHg 74%
20:00 +19°C° 0 mm 3 mps 747 mmHg 73%
21:00 +18°C° 0 mm 3 mps 747 mmHg 73%
22:00 +18°C° 0 mm 3 mps 747 mmHg 73%
23:00 +17°C° 0.1 mm 3 mps 747 mmHg 78%
Show more